Weather History for Brunswick, GA

Change the Weather History Date:

Wednesday, February 13, 2013

  Actual Average Record
Temperature  
Mean Temperature 74 °F -  
Max Temperature 87 °F 62 °F 87 °F (2013)
Min Temperature 59 °F 40 °F 21 °F (2012)
Cooling Degree Days 8    
Growing Degree Days 24 (Base 50)    
Moisture  
Dew Point 60 °F    
Average Humidity 63    
Maximum Humidity 100    
Minimum Humidity 25    
Precipitation  
Precipitation 0.00 in - - ()
Sea Level Pressure  
Sea Level Pressure 29.83 in    
Wind  
Wind Speed 11 mph (WSW)    
Max Wind Speed 21 mph    
Max Gust Speed 33 mph    
Visibility 10 miles    
Events Thunderstorm    
Averages and records for this station are not official NWS values.
T = Trace of Precipitation, MM = Missing Value Source: NWS Daily Summary

Daily Weather History Graph

Daily Weather History Graph

Search for Another Location

Airport:

Trip Planner

Search our weather history database for the weather conditions in past years. The results will help you decide how hot, cold, wet, or windy it might be!

Date:

Astronomy

Feb. 13, 2013 Rise Set
Actual Time 7:08 AM EST 6:11 PM EST
Civil Twilight 6:43 AM EST 6:36 PM EST
Nautical Twilight 6:15 AM EST 7:05 PM EST
Astronomical Twilight 5:47 AM EST 7:33 PM EST
Moon 8:55 AM EST (2/13) 9:53 PM EST (2/13)
Length of Visible Light 11h 52m
Length of Day
11h 02m
Waxing Crescent, 13% of the Moon is Illuminated
Feb 13
Waxing Crescent
Feb 17
First Quarter
Feb 25
Full
Mar 4
Last Quarter
Mar 11
New

Hourly Weather History & Observations

Time (EST) Temp. Heat Index Dew Point Humidity Pressure Visibility Wind Dir Wind Speed Gust Speed Precip Events Conditions
12:15 AM 64.4 °F - 64.4 °F 100% 29.86 in 4.0 mi Calm Calm - N/A   Mostly Cloudy
12:35 AM 68.0 °F - 68.0 °F 100% 29.84 in 10.0 mi South 9.2 mph - N/A   Overcast
12:55 AM 71.6 °F - 69.8 °F 94% 29.80 in 10.0 mi South 12.7 mph 18.4 mph N/A   Overcast
1:15 AM 71.6 °F - 69.8 °F 94% 29.81 in 10.0 mi SSW 17.3 mph 24.2 mph N/A   Overcast
1:35 AM 73.4 °F - 69.8 °F 88% 29.80 in 10.0 mi SSW 17.3 mph 24.2 mph N/A Thunderstorm Mostly Cloudy
1:55 AM 73.4 °F - 69.8 °F 88% 29.81 in 10.0 mi SSW 11.5 mph 23.0 mph N/A   Overcast
2:15 AM 73.4 °F - 69.8 °F 88% 29.80 in 10.0 mi SSW 15.0 mph 20.7 mph N/A Thunderstorm Overcast
2:35 AM 73.4 °F - 69.8 °F 88% 29.80 in 10.0 mi SSW 16.1 mph 21.9 mph N/A Thunderstorm Overcast
2:55 AM 73.4 °F - 69.8 °F 88% 29.80 in 10.0 mi SSW 16.1 mph - N/A Thunderstorm Thunderstorm
3:15 AM 73.4 °F - 69.8 °F 88% 29.79 in 10.0 mi SSW 15.0 mph 21.9 mph N/A Thunderstorm Overcast
3:35 AM 73.4 °F - 69.8 °F 88% 29.78 in 10.0 mi SSW 12.7 mph 20.7 mph N/A Thunderstorm Overcast
3:55 AM 73.4 °F - 69.8 °F 88% 29.77 in 10.0 mi SSW 13.8 mph 19.6 mph N/A   Overcast
4:15 AM 73.4 °F - 69.8 °F 88% 29.77 in 10.0 mi SSW 9.2 mph - N/A Thunderstorm Overcast
4:35 AM 73.4 °F - 69.8 °F 88% 29.79 in 10.0 mi WSW 6.9 mph - N/A   Overcast
4:55 AM 73.4 °F - 69.8 °F 88% 29.78 in 10.0 mi SW 10.4 mph 17.3 mph N/A   Overcast
5:15 AM 73.4 °F - 69.8 °F 88% 29.77 in 10.0 mi SW 9.2 mph - N/A Thunderstorm Mostly Cloudy
5:35 AM 73.4 °F - 69.8 °F 88% 29.78 in 10.0 mi SW 6.9 mph - N/A   Mostly Cloudy
5:55 AM 73.4 °F - 69.8 °F 88% 29.78 in 10.0 mi SSW 5.8 mph - N/A   Mostly Cloudy
6:15 AM 73.4 °F - 71.6 °F 94% 29.78 in 10.0 mi SSW 6.9 mph - N/A Thunderstorm Overcast
6:35 AM 73.4 °F - 69.8 °F 88% 29.78 in 10.0 mi SSW 5.8 mph - N/A Thunderstorm Overcast
6:55 AM 73.4 °F - 69.8 °F 88% 29.79 in 10.0 mi SW 8.1 mph - N/A Thunderstorm Thunderstorm
7:15 AM 75.2 °F - 71.6 °F 89% 29.81 in 10.0 mi WSW 9.2 mph - N/A Thunderstorm Overcast
7:35 AM 75.2 °F - 71.6 °F 89% 29.82 in 10.0 mi WSW 6.9 mph - N/A   Overcast
7:55 AM 75.2 °F - 71.6 °F 89% 29.82 in 10.0 mi SW 6.9 mph - N/A   Mostly Cloudy
8:15 AM 77.0 °F - 71.6 °F 83% 29.83 in 10.0 mi SW 6.9 mph - N/A   Overcast
8:35 AM 78.8 °F - 71.6 °F 78% 29.83 in 10.0 mi SW 10.4 mph - N/A   Mostly Cloudy
8:55 AM 78.8 °F - 71.6 °F 78% 29.83 in 10.0 mi WSW 10.4 mph 16.1 mph N/A   Overcast
9:15 AM 78.8 °F - 71.6 °F 78% 29.84 in 10.0 mi WSW 13.8 mph - N/A   Mostly Cloudy
9:35 AM 80.6 °F 84.6 °F 71.6 °F 74% 29.84 in 10.0 mi WSW 12.7 mph 21.9 mph N/A   Mostly Cloudy
9:55 AM 80.6 °F 84.6 °F 71.6 °F 74% 29.84 in 10.0 mi WSW 16.1 mph 20.7 mph N/A   Overcast
10:15 AM 80.6 °F 84.6 °F 71.6 °F 74% 29.84 in 10.0 mi WSW 15.0 mph - N/A   Overcast
10:35 AM 80.6 °F 84.6 °F 71.6 °F 74% 29.83 in 10.0 mi WSW 12.7 mph - N/A   Mostly Cloudy
10:55 AM 82.4 °F 86.3 °F 69.8 °F 66% 29.84 in 10.0 mi WSW 15.0 mph - N/A   Mostly Cloudy
11:15 AM 82.4 °F 86.3 °F 69.8 °F 66% 29.83 in 10.0 mi West 17.3 mph 21.9 mph N/A   Scattered Clouds
11:35 AM 84.2 °F 88.4 °F 69.8 °F 62% 29.83 in 10.0 mi WSW 15.0 mph 23.0 mph N/A   Scattered Clouds
11:55 AM 82.4 °F 85.4 °F 68.0 °F 62% 29.82 in 10.0 mi WSW 11.5 mph 21.9 mph N/A   Mostly Cloudy
12:15 PM 84.2 °F 87.3 °F 68.0 °F 58% 29.80 in 10.0 mi West 13.8 mph 17.3 mph N/A   Mostly Cloudy
12:35 PM 86.0 °F 87.3 °F 64.4 °F 48% 29.79 in 10.0 mi WSW 15.0 mph - N/A   Scattered Clouds
12:55 PM 87.8 °F 87.6 °F 60.8 °F 40% 29.79 in 10.0 mi WSW 17.3 mph 23.0 mph N/A   Clear
1:15 PM 86.0 °F 85.4 °F 59.0 °F 40% 29.78 in 10.0 mi West 11.5 mph 23.0 mph N/A   Scattered Clouds
1:35 PM 87.8 °F 87.6 °F 60.8 °F 40% 29.77 in 10.0 mi WSW 15.0 mph - N/A   Scattered Clouds
1:55 PM 86.0 °F 85.4 °F 59.0 °F 40% 29.77 in 10.0 mi West 10.4 mph 21.9 mph N/A   Mostly Cloudy
2:15 PM 87.8 °F 85.7 °F 53.6 °F 31% 29.75 in 10.0 mi West 15.0 mph 20.7 mph N/A   Scattered Clouds
2:35 PM 86.0 °F 84.2 °F 53.6 °F 33% 29.75 in 10.0 mi WSW 12.7 mph 20.7 mph N/A   Scattered Clouds
2:55 PM 86.0 °F 84.2 °F 53.6 °F 33% 29.76 in 10.0 mi West 13.8 mph - N/A   Mostly Cloudy
3:15 PM 84.2 °F - 51.8 °F 33% 29.77 in 10.0 mi West 11.5 mph 23.0 mph N/A   Overcast
3:35 PM 82.4 °F - 42.8 °F 25% 29.78 in 10.0 mi WNW 15.0 mph 29.9 mph N/A   Overcast
3:55 PM 80.6 °F - 44.6 °F 28% 29.80 in 10.0 mi West 20.7 mph 33.4 mph N/A   Overcast
4:15 PM 78.8 °F - 44.6 °F 30% 29.81 in 10.0 mi West 10.4 mph - N/A   Overcast
4:35 PM 78.8 °F - 44.6 °F 30% 29.83 in 10.0 mi West 17.3 mph 26.5 mph N/A   Overcast
4:55 PM 78.8 °F - 42.8 °F 28% 29.83 in 10.0 mi West 11.5 mph 25.3 mph N/A   Overcast
5:15 PM 77.0 °F - 42.8 °F 29% 29.83 in 10.0 mi West 12.7 mph 21.9 mph N/A   Overcast
5:35 PM 75.2 °F - 44.6 °F 34% 29.85 in 10.0 mi West 13.8 mph 27.6 mph N/A   Overcast
5:55 PM 73.4 °F - 44.6 °F 36% 29.86 in 10.0 mi West 17.3 mph 25.3 mph N/A   Overcast
6:15 PM 73.4 °F - 44.6 °F 36% 29.86 in 10.0 mi West 15.0 mph 24.2 mph N/A   Overcast
6:35 PM 73.4 °F - 44.6 °F 36% 29.87 in 10.0 mi West 10.4 mph 19.6 mph N/A   Overcast
6:55 PM 71.6 °F - 44.6 °F 38% 29.87 in 10.0 mi West 8.1 mph - N/A   Overcast
7:15 PM 71.6 °F - 44.6 °F 38% 29.88 in 10.0 mi West 9.2 mph 16.1 mph N/A   Overcast
7:35 PM 71.6 °F - 44.6 °F 38% 29.88 in 10.0 mi West 9.2 mph - N/A   Overcast
7:55 PM 71.6 °F - 46.4 °F 41% 29.87 in 10.0 mi West 11.5 mph - N/A   Overcast
8:15 PM 71.6 °F - 46.4 °F 41% 29.89 in 10.0 mi West 17.3 mph 24.2 mph N/A   Overcast
8:35 PM 71.6 °F - 46.4 °F 41% 29.88 in 10.0 mi West 11.5 mph 16.1 mph N/A   Overcast
8:55 PM 69.8 °F - 46.4 °F 43% 29.88 in 10.0 mi WSW 10.4 mph - N/A   Overcast
9:15 PM 69.8 °F - 46.4 °F 43% 29.89 in 10.0 mi WSW 11.5 mph 21.9 mph N/A   Overcast
9:35 PM 69.8 °F - 48.2 °F 46% 29.89 in 10.0 mi West 8.1 mph - N/A   Overcast
9:55 PM 69.8 °F - 46.4 °F 43% 29.90 in 10.0 mi West 13.8 mph 20.7 mph N/A   Overcast
10:15 PM 68.0 °F - 46.4 °F 46% 29.90 in 10.0 mi WNW 8.1 mph 19.6 mph N/A   Overcast
10:35 PM 68.0 °F - 50.0 °F 52% 29.92 in 10.0 mi West 12.7 mph 18.4 mph N/A   Overcast
10:55 PM 62.6 °F - 53.6 °F 72% 29.93 in 10.0 mi WNW 9.2 mph 17.3 mph N/A   Mostly Cloudy
11:15 PM 60.8 °F - 53.6 °F 77% 29.93 in 10.0 mi West 8.1 mph - N/A   Mostly Cloudy
11:35 PM 60.8 °F - 51.8 °F 72% 29.94 in 10.0 mi WNW 11.5 mph - N/A   Scattered Clouds
11:55 PM 59.0 °F - 51.8 °F 77% 29.94 in 10.0 mi WNW 4.6 mph 9.2 mph N/A   Scattered Clouds